Location: Berchem
(50.8167°N, 4.0667°E)
Time: 07:53:36
(UTC+00:00)

Daily predictions for brighter satellites

Satellite Brightness Start Highest point End
(mag) Time Altitude Azimuth Time Altitude Azimuth Time Altitude Azimuth
ATLAS 2AS CENTAUR R/B 3.7 16:02:02 10° W 16:09:44 47° NNW 16:17:18 10° NE
Cosmos 2219 Rocket 2.9 16:08:28 10° SW 16:13:58 53° NW 16:19:32 10° NNE
Cosmos 2322 Rocket 4.2 16:10:25 10° WNW 16:14:14 18° NNW 16:18:05 10° N
Cosmos 1812 2.7 16:14:14 10° S 16:18:05 73° E 16:21:58 10° NNE
ALOS 2.7 16:15:47 10° S 16:20:26 70° WSW 16:25:08 10° NNW
Cosmos 2344 4.5 16:12:37 10° NW 16:20:53 47° NNE 16:31:52 10° E
RESURS DK-1 3.7 16:19:00 10° WSW 16:22:48 35° NW 16:26:39 10° NNE
Cosmos 2333 Rocket 3.1 16:18:47 10° SW 16:24:20 47° NW 16:29:55 10° NNE
Cosmos 1536 2.8 16:20:20 10° N 16:24:22 80° E 16:28:20 10° SSE
Okean-O 3.6 16:21:40 10° ESE 16:25:19 26° ENE 16:28:59 10° N
NOAA 6 4.2 16:20:49 10° SSE 16:25:57 80° WSW 16:31:07 10° NNW
NOSS 0 Rocket 4.1 16:20:58 10° SW 16:27:12 81° WNW 16:33:30 10° NNE
SL-16 R/B 4.3 16:24:00 10° WNW 16:27:16 15° NNW 16:30:32 10° N
Helios 1A Rocket 3.1 16:23:55 10° SSE 16:28:00 81° WSW 16:32:06 10° NNW
Feng Yun 1-1 Rocket 4.3 16:24:19 10° SE 16:29:32 52° ENE 16:34:49 10° N
Radarsat Rocket 4.0 16:23:39 10° SSE 16:29:35 86° WSW 16:35:29 10° NNW
Lacrosse 5 rocket 1.9 16:26:20 10° W 16:30:28 46° NNW 16:34:16 11° NE
Cosmos 292 Rocket 4.2 16:26:16 10° NNW 16:31:08 70° WSW 16:35:55 10° SSE
STARLINK-52 3.3 16:28:35 10° WSW 16:32:04 68° SSE 16:35:23 11° ENE
USA 215 3.9 16:26:04 10° ENE 16:32:11 41° SE 16:38:17 10° SSW
SL-4 R/B 1.8 16:29:56 10° W 16:33:38 80° N 16:37:38 10° E
Nadezhda 4 Rocket 4.0 16:28:29 10° S 16:34:47 77° E 16:41:05 10° NNE
Cosmos 405 Rocket 4.1 16:34:48 10° NNE 16:37:16 17° ENE 16:39:45 10° ESE
Cosmos 614 Rocket 4.4 16:34:57 10° S 16:39:43 42° ESE 16:44:29 10° NE
STARLINK-29 3.2 16:36:39 10° WSW 16:40:11 79° SSE 16:43:13 14° ENE
Cosmos 1867 3.6 16:36:35 10° NW 16:42:06 87° NE 16:47:33 10° SE
STARLINK-67 2.5 16:40:15 10° WNW 16:43:01 87° N 16:45:47 10° ESE
Cosmos 1980 4.0 16:37:26 10° SW 16:43:04 70° WNW 16:48:46 10° NNE
Okean 1 4.3 16:40:47 10° SSE 16:44:10 27° E 16:47:34 10° NNE
Cosmos 1553 Rocket 4.4 16:39:58 10° N 16:45:59 40° ENE 16:51:58 10° SE
Cosmos 1441 Rocket 3.0 16:43:16 10° N 16:47:06 74° ENE 16:50:50 10° SSE
Cosmos 1190 Rocket 4.4 16:43:33 10° S 16:48:24 42° ESE 16:53:15 10° NE
CZ-4B R/B 3.0 16:45:37 10° N 16:48:50 35° WNW 16:51:59 10° SW
Cosmos 1782 Rocket 3.5 16:46:33 10° N 16:50:52 60° ENE 16:55:09 10° SSE
STARLINK-46 2.7 16:48:33 10° WNW 16:51:09 52° N 16:52:46 20° ENE
Aureole 1 Rocket 2.3 16:48:35 10° SSW 16:51:41 84° ESE 16:55:24 10° NNE
H-2A R/B 2.6 16:49:29 10° SSE 16:53:08 65° ENE 16:56:48 10° N
YAOGAN 6 3.6 16:51:22 10° ESE 16:54:18 24° ENE 16:57:18 10° N
Cosmos 2297 4.1 16:49:17 10° NNW 16:54:57 68° WSW 17:00:33 10° SSE
Cosmos 1666 3.0 16:51:24 10° NNW 16:55:07 68° W 16:58:50 10° S
Cosmos 2026 Rocket 4.1 16:49:44 10° SSE 16:55:33 52° E 17:01:28 10° NNE
Uosat 12 SS-18 rocket 4.1 16:51:34 10° NW 16:56:33 67° NE 17:00:53 10° SE
IRS-1C Rocket 4.1 16:52:52 10° SSE 16:58:09 89° ENE 17:03:27 10° NNW
Cosmos 1174 3.9 16:54:22 10° SSW 16:59:04 75° SE 17:01:59 17° NE
Cosmos 1544 4.4 16:58:55 10° NNE 17:04:00 12° ESE 17:04:23 10° ESE
Cosmos 1703 Rocket 3.5 17:00:03 10° S 17:04:31 75° E 17:09:01 10° NNE
AQUARIUS 4.1 17:01:35 10° SSE 17:06:05 88° ENE 17:10:37 10° NNW
NOSS 3-1 (C) 4.0 16:59:42 10° NW 17:06:50 63° NE 17:15:07 10° ESE
Cosmos 1689 Rocket 3.9 17:04:50 10° N 17:07:34 30° WNW 17:10:15 10° SW
USA 267 3.3 17:01:45 10° ESE 17:08:18 87° SSW 17:14:54 10° WNW
CZ-4C R/B 3.5 17:05:12 10° SSE 17:08:51 20° ESE 17:10:26 18° E
Exosat Rocket 4.3 17:04:24 10° SW 17:09:16 48° NW 17:14:28 10° NNE
Cosmos 1140 Rocket 3.7 17:05:43 10° S 17:10:40 51° ESE 17:14:44 15° NE
Okean 2 Rocket 3.3 17:07:06 10° N 17:11:27 46° ENE 17:15:47 10° SSE
CZ-4 R/B 1.9 17:11:56 10° SE 17:15:24 32° ENE 17:18:53 10° N
COSMOS 2428 4.4 17:13:14 10° W 17:17:55 25° NW 17:22:38 10° NNE
Cosmos 1417 Rocket 4.4 17:12:18 10° N 17:18:23 61° ENE 17:24:28 10° SSE
Cosmos 1023 Rocket 4.5 17:13:38 10° S 17:18:38 61° ESE 17:22:37 16° NNE
USA 229 DEB 3.8 17:11:46 10° NW 17:18:56 70° NE 17:26:26 10° SE
USA 229 3.8 17:11:53 10° NW 17:19:02 70° NE 17:26:31 10° SE
Meteor 2-9 Rocket 4.3 17:13:41 10° N 17:19:30 60° ENE 17:25:11 10° SSE
Cosmos 1975 2.7 17:15:45 10° N 17:19:44 62° ENE 17:23:43 10° SSE
Sich 1 Rocket 3.5 17:15:40 10° N 17:20:06 88° E 17:24:29 10° S
Envisat 2.9 17:16:42 10° SSE 17:21:45 75° ENE 17:26:51 10° NNW
Cosmos 2221 Rocket 3.9 17:17:49 10° SSE 17:22:01 43° E 17:24:57 18° NNE
Cosmos 1656 Rocket 4.1 17:18:02 10° NNW 17:23:06 37° NE 17:26:28 19° ESE
Cosmos 468 Rocket 4.3 17:18:39 10° NNW 17:23:35 41° ENE 17:28:31 10° SE
NOSS 3-1 (A) 4.0 17:17:18 10° NW 17:24:21 58° NE 17:32:19 11° ESE
BREEZE-M DEB (TANK) 4.4 17:20:24 10° W 17:24:42 26° SW 17:27:00 10° SSE
Okean 1-7 3.1 17:20:46 10° SSW 17:25:08 81° W 17:29:34 10° N
Cosmos 1943 4.1 17:23:02 10° SSE 17:27:42 27° ESE 17:28:51 25° E
STARLINK-43 3.5 17:24:27 10° SW 17:28:07 59° SSE 17:29:23 36° E
Cosmos 2360 Rocket 4.4 17:25:43 10° NW 17:28:27 13° NNW 17:31:12 10° N
Cosmos 407 Rocket 3.5 17:25:25 10° SSW 17:30:39 83° WNW 17:35:16 14° NNE
FALCON 9 DEB 3.2 17:28:49 10° W 17:32:18 65° N 17:33:14 43° NE
Okean O Rocket 4.4 17:29:28 10° SW 17:32:38 20° W 17:35:51 10° NW
Meteor 1-12 Rocket 4.3 17:29:10 10° N 17:34:57 57° ENE 17:40:35 10° SSE
Lacrosse 5 2.8 17:30:32 10° SSW 17:35:02 33° SE 17:36:27 28° E
NOSS 7 (H) 4.3 17:32:27 10° SSW 17:35:31 49° SE 17:35:39 48° ESE
Cosmos 2369 Rocket 2.1 17:30:46 10° NNW 17:36:27 84° ENE 17:42:08 10° SSE
Cosmos 1300 Rocket 3.4 17:34:22 10° N 17:38:39 61° ENE 17:42:55 10° SSE
Cosmos 1743 3.6 17:35:04 10° NNW 17:38:52 52° W 17:42:38 10° S
Lacrosse 4 Rocket 2.5 17:38:13 10° NNW 17:41:13 27° NNE 17:41:13 27° NNE
SeaSat 1 4.1 17:43:42 17° NNE 17:43:42 17° NNE 17:46:05 10° N
COSMO-SKYMED 1 2.7 17:41:44 33° NE 17:43:22 52° E 17:47:36 10° S
STARLINK-60 3.2 17:42:23 10° W 17:45:44 57° N 17:45:57 56° NNE
Okean 3 3.4 17:41:58 10° S 17:46:03 57° E 17:47:16 40° NE
YAOGAN 1 2.5 17:43:23 10° SSE 17:47:37 58° ENE 17:51:54 10° N
Abrixas rocket 3.2 17:45:19 10° SW 17:47:53 33° S 17:47:53 33° S
SL-16 R/B 2.6 17:42:46 10° SW 17:48:24 62° WNW 17:52:44 18° NNE
IRIDIUM 106 4.5 17:45:05 10° SSE 17:50:04 48° E 17:53:22 21° NNE
Cosmos 192 4.5 17:45:22 10° NNW 17:50:13 49° ENE 17:51:34 38° ESE
Cosmos 1943 Rocket 2.5 17:45:22 10° NNW 17:50:59 67° WSW 17:56:30 10° SSE
NOAA 15 4.5 17:46:24 10° SSE 17:51:38 70° ENE 17:56:52 10° NNW
Cosmos 2237 Rocket 3.8 17:50:04 10° WSW 17:55:00 29° NW 17:59:30 12° NNE
Cosmos 2208 Rocket 4.4 17:50:15 10° NNW 17:55:28 44° ENE 17:56:16 41° E
Cosmos 1603 3.8 17:50:22 10° S 17:55:57 56° ESE 17:57:52 38° ENE
STARLINK-80 3.5 17:53:58 10° SW 17:57:42 59° SSE 17:57:49 59° SE
Meteor 1-18 Rocket 4.4 17:52:18 10° SSW 17:57:57 73° WNW 18:03:34 10° N
Cosmos 2219 Rocket 4.4 17:55:44 10° WNW 17:59:17 17° NNW 18:02:51 10° N
Cosmos 1655 Rocket 3.9 17:54:20 10° S 18:00:37 77° E 18:06:53 10° NNE
Okean-O 3.8 17:57:21 10° S 18:01:35 44° W 18:05:52 10° NNW
ATLAS 2AS CENTAUR R/B 4.0 17:55:37 10° WNW 18:02:39 32° N 18:05:48 24° NE
Aureole 3 Rocket 2.7 18:00:48 10° NNW 18:03:48 60° W 18:06:59 10° S
Ariane Rocket 3.9 18:06:38 32° NNE 18:06:38 32° NNE 18:09:45 10° N
BREEZE-M R/B 3.8 18:02:38 10° W 18:06:58 35° SSW 18:07:44 30° S
Cosmos 1570 Rocket 3.9 18:02:01 10° NNW 18:07:13 59° ENE 18:08:05 52° ESE
SKYMED 3 4.4 18:06:03 43° NNE 18:07:28 88° ESE 18:11:49 10° SSW
Cosmos 1763 Rocket 3.3 18:02:34 10° NNW 18:07:40 70° ENE 18:09:32 39° SE
STARLINK-52 3.8 18:05:53 10° W 18:08:51 51° NW 18:08:51 51° NW
Cosmos 2333 Rocket 4.5 18:06:43 10° WNW 18:10:08 16° NNW 18:13:34 10° N
Lacrosse 5 rocket 2.4 18:06:30 10° WNW 18:09:54 33° N 18:09:54 33° N
CSL-04 Rocket 3.5 18:05:53 10° SSE 18:11:11 90° NW 18:16:34 10° NNW
Cosmos 1461 4.4 18:08:49 10° S 18:10:37 23° S 18:10:37 23° S
SL-4 R/B 2.5 18:09:27 10° W 18:13:12 50° SSW 18:13:40 47° S
Cosmos 405 Rocket 3.6 18:09:57 10° NNW 18:13:32 47° W 18:17:08 10° S
USA 215 3.2 18:12:58 40° ENE 18:15:36 83° NNW 18:22:09 10° WSW
STARLINK-29 4.2 18:14:03 10° W 18:16:41 43° NW 18:16:41 43° NW
S3M 4.4 18:16:01 10° NNW 18:22:07 62° W 18:28:08 10° S
Cosmos 2151 Rocket 4.2 18:19:05 10° NNW 18:23:24 55° W 18:27:41 10° S
Meteor 2-4 Rocket 3.7 18:17:57 10° SSW 18:23:48 88° WNW 18:27:04 27° N
Cosmos 2266 Rocket 3.9 18:19:30 10° S 18:25:55 81° E 18:31:06 16° NNE
YAOGAN 6 4.5 18:24:30 10° SSW 18:27:43 30° W 18:30:59 10° NNW
SKYMED 2 4.2 18:30:24 42° NNW 18:31:30 55° WNW 18:35:44 10° SSW
Cosmos 2344 4.4 18:27:09 10° NW 18:36:35 84° SW 18:49:47 10° SE
Cosmos 841 Rocket 4.0 18:35:06 10° NNW 18:38:46 46° N 18:38:46 46° N
Gbstr 26 Del rocket 4.0 18:34:02 10° SW 18:40:50 59° SSE 18:40:50 59° SSE
Meteor 1-15 Rocket 4.1 18:36:21 10° N 18:41:39 76° NNE 18:41:39 76° NNE
CZ-4 R/B 3.4 18:47:15 10° SSW 18:50:30 25° W 18:53:45 10° NW
CZ-4C R/B 2.3 18:51:11 10° SW 18:55:39 69° SW 18:55:39 69° SW
Cosmos 1656 Rocket 4.5 19:01:36 10° NW 19:06:49 46° WSW 19:07:57 40° SW
Cosmos 1943 3.7 19:05:47 10° SW 19:10:43 57° W 19:10:43 57° W
Lacrosse 5 3.2 19:12:38 10° WSW 19:15:40 36° WSW 19:15:40 36° WSW
Lacrosse 4 Rocket 4.1 19:16:41 10° NW 19:17:34 16° NW 19:17:34 16° NW
SL-16 R/B 4.3 19:29:51 10° WNW 19:33:45 18° NNW 19:34:37 18° NNW
ATLAS 2AS CENTAUR R/B 4.1 19:48:12 10° NW 19:53:14 34° NNW 19:53:14 34° NNW
USA 215 4.3 20:00:19 41° NW 20:00:19 41° NW 20:04:41 10° W
